Theta_e
287 287 288 288 288 288 288 289 289 290 290 291 292 292 294 296 297 298 299 300 301 301 302 303 304 304 306 306 306 306 307 307 307 307 308 309 309 310 311 312 314 315 315 315 316 316 316 317 318 319 319 321 321 322 323 324 326 327 328 329 329 329 329 329 329 329 329 329 330 331 333 334 335 335 336 336 336 336 337 337 337 337 337 336 336 336
286 286 287 287 287 287 287 288 289 290 290 290 291 291 292 293 295 297 298 299 300 300 300 302 303 304 305 305 305 306 306 307 307 308 308 308 309 310 311 311 313 314 315 315 315 316 316 317 318 319 319 320 320 321 322 323 324 326 327 328 328 329 329 329 329 329 329 330 330 331 332 333 334 335 335 335 335 335 335 335 335 335 335 335 335 335
285 285 285 286 286 286 286 288 289 290 290 290 291 291 291 292 294 295 297 298 298 298 298 300 301 303 304 305 305 305 306 306 307 308 308 309 309 310 310 311 312 313 314 315 315 315 316 317 317 318 319 319 320 320 321 322 323 324 325 326 326 327 327 328 328 328 329 329 330 330 331 332 333 334 334 334 334 333 333 333 333 334 333 334 335 335
284 283 284 285 285 286 286 287 289 290 291 290 290 290 290 292 293 295 296 297 297 297 297 298 299 300 302 303 305 305 306 307 307 308 308 309 310 310 310 310 311 312 313 314 315 315 315 316 317 318 318 319 319 320 320 320 321 322 323 323 324 325 325 325 326 326 327 328 329 329 330 331 332 332 332 332 332 332 332 332 332 333 333 334 335 335
283 283 284 284 285 285 287 288 289 290 290 290 289 289 290 291 293 294 295 296 296 296 296 297 298 299 300 302 303 305 306 307 308 308 308 309 310 310 310 310 311 312 313 313 314 315 315 316 317 318 318 319 319 319 319 319 320 321 322 322 323 323 323 324 324 324 325 326 327 327 328 328 329 330 330 330 330 331 331 332 332 333 333 334 334 335
283 283 284 284 285 285 286 288 289 289 288 288 288 288 289 291 292 293 294 295 295 295 295 296 297 298 299 300 301 303 305 307 308 308 309 309 310 310 311 311 311 312 312 313 313 314 315 316 317 318 318 319 319 319 319 319 319 319 320 321 322 322 323 323 323 323 323 324 325 325 326 326 327 327 328 328 329 329 330 331 332 333 333 333 334 335
282 283 284 284 285 285 286 287 288 288 287 286 287 287 289 290 291 292 293 294 294 294 294 295 296 297 298 299 300 302 304 306 307 308 309 309 310 310 311 311 311 311 312 313 313 314 315 316 317 318 318 318 319 319 319 319 318 318 318 319 320 322 323 323 323 323 323 323 324 324 324 325 325 325 326 327 327 327 328 329 331 332 332 333 333 334
282 283 284 284 284 285 285 286 287 287 287 286 285 286 287 289 290 291 292 293 294 294 293 294 295 296 297 298 299 301 302 304 306 307 309 310 311 311 311 311 311 311 312 313 313 314 315 316 317 318 318 319 319 319 319 318 318 318 318 318 319 321 322 323 323 322 322 322 323 323 323 323 324 324 324 325 325 326 326 327 329 331 332 332 333 333
281 282 282 283 283 283 284 285 286 287 287 286 285 285 286 287 288 289 291 292 292 292 292 292 292 293 295 297 299 300 302 303 305 306 308 309 311 312 312 312 312 312 311 312 313 314 315 316 317 318 318 319 319 319 318 318 318 317 317 318 318 320 321 322 322 322 322 322 322 322 323 323 323 323 323 323 324 325 325 326 328 329 331 331 332 333
281 281 282 282 283 283 283 284 285 286 287 286 286 286 286 286 286 287 288 289 290 290 291 290 291 292 294 296 298 300 301 303 305 306 307 310 311 312 313 313 313 313 312 312 313 314 314 315 317 318 318 318 318 318 318 318 317 317 316 317 317 318 320 321 322 322 322 322 322 322 322 322 322 322 322 323 323 323 324 325 326 327 328 329 330 331
281 281 281 282 283 283 283 284 285 286 287 286 286 286 287 286 286 285 285 286 287 288 289 290 290 291 292 294 297 299 300 302 304 306 309 310 311 312 312 313 313 313 312 312 313 314 315 315 316 317 318 318 318 318 318 317 316 316 315 316 316 317 318 319 320 321 322 322 322 322 322 322 322 322 322 322 322 322 323 323 324 324 326 327 328 329
280 281 281 281 282 282 283 284 284 285 285 284 284 284 285 285 285 285 284 284 285 286 287 288 289 291 292 294 296 297 298 300 302 305 307 310 311 311 312 313 313 313 312 313 313 314 315 315 316 317 318 318 318 318 318 317 316 315 315 315 315 316 317 318 319 320 321 321 322 322 322 322 321 321 321 321 321 321 321 322 322 323 323 325 326 327
280 280 281 281 281 281 282 282 283 283 283 283 282 282 282 283 285 285 285 285 285 285 286 287 288 290 292 294 295 295 295 296 298 301 303 307 309 309 311 312 314 314 314 314 315 315 315 315 316 316 318 318 317 317 316 315 315 314 314 314 315 315 316 317 318 319 320 321 321 321 322 321 321 321 321 321 320 320 320 321 321 322 322 323 325 326
279 279 280 280 280 280 281 281 281 281 282 282 282 282 282 284 285 285 285 284 285 285 286 286 287 289 292 295 295 293 293 294 295 297 299 303 305 306 308 310 312 314 315 315 316 317 316 316 316 317 318 318 318 316 315 315 314 313 313 314 315 315 316 316 317 318 319 319 320 321 321 321 321 320 320 320 320 320 320 320 321 321 322 323 324 325
278 278 278 278 279 280 280 280 280 281 281 282 282 283 283 284 284 284 284 283 284 284 285 285 286 288 291 295 294 292 291 292 292 294 296 299 302 304 306 307 310 313 315 316 316 317 317 317 318 319 319 319 319 318 316 315 314 313 313 314 314 315 315 316 316 317 318 318 319 319 320 320 320 320 319 319 319 319 319 320 320 321 322 323 324 325
278 278 278 278 278 279 280 280 280 281 281 282 282 283 283 283 283 283 283 283 283 283 284 283 284 286 290 294 294 292 290 290 290 290 292 295 299 303 304 306 308 311 314 315 316 317 318 318 319 319 320 318 316 315 315 315 314 313 313 313 314 314 315 315 316 316 317 318 318 319 319 319 319 319 319 319 319 319 319 319 320 321 322 323 323 324
278 278 277 278 278 279 280 280 281 281 282 282 282 282 282 283 283 283 283 282 282 282 282 282 282 282 285 289 292 292 290 289 288 289 290 293 297 301 304 304 306 309 313 315 316 317 318 318 319 320 321 317 315 314 315 314 314 313 313 313 313 314 314 315 315 316 316 317 318 318 318 318 318 318 318 318 318 318 318 319 319 320 321 322 323 324
277 277 277 277 278 278 279 280 280 281 282 281 281 282 282 283 284 284 283 282 282 281 281 281 281 281 282 284 287 289 290 288 287 287 288 291 295 299 302 303 305 308 312 314 316 318 319 319 320 320 320 315 314 313 314 314 313 313 313 313 313 313 313 314 315 315 316 316 317 317 318 318 318 318 318 318 318 318 318 318 319 319 320 321 322 323
277 277 277 277 278 278 279 279 280 281 281 281 281 281 281 283 284 284 283 282 282 281 281 281 281 281 282 283 285 288 289 288 287 286 287 290 293 298 301 302 304 307 311 313 315 316 318 319 319 317 315 313 313 313 313 313 313 313 313 313 313 313 313 313 314 315 315 316 316 317 317 317 317 317 317 317 317 317 318 318 319 319 320 321 322 323
276 277 277 277 278 278 278 279 280 281 281 281 281 281 281 282 283 282 282 282 282 281 281 281 281 281 282 284 285 287 288 287 286 286 287 289 292 296 300 302 303 306 309 311 312 314 316 319 319 317 312 312 312 313 313 313 313 313 313 313 313 312 312 313 313 314 315 315 316 316 316 316 316 316 316 317 317 317 317 318 318 319 319 320 321 322
276 277 278 278 278 278 278 279 280 281 282 282 282 281 281 282 282 281 281 281 281 281 281 281 281 282 283 283 284 286 287 287 286 285 286 289 292 296 300 301 303 305 307 309 311 313 315 317 319 319 316 314 313 313 313 313 313 313 313 313 312 312 312 312 313 314 315 315 315 315 315 315 315 316 316 316 316 316 317 317 318 319 319 320 321 322
276 277 278 279 279 278 279 280 281 282 283 282 281 281 281 281 281 280 281 280 280 280 280 280 281 282 283 283 284 285 287 287 286 286 286 288 291 295 300 302 303 304 305 308 310 312 314 316 318 318 317 314 313 313 312 313 313 313 313 312 312 312 312 312 312 313 314 315 315 315 315 315 315 315 315 316 316 316 316 317 318 319 319 320 320 321
277 277 278 279 279 279 280 281 281 282 283 282 282 282 282 282 281 281 280 280 280 280 281 281 282 283 284 284 285 286 287 288 288 287 286 287 290 295 300 301 302 303 304 307 309 311 312 314 316 317 316 313 312 312 312 312 312 312 312 312 312 311 311 311 312 313 314 314 315 315 315 315 315 315 315 315 315 316 316 317 318 319 319 320 320 320
278 278 279 279 280 280 281 281 281 282 282 282 283 283 284 283 283 282 282 282 282 282 282 282 282 282 284 285 286 287 289 290 290 289 287 288 291 295 299 301 302 303 304 306 308 310 311 312 314 316 317 313 312 312 312 312 312 312 312 312 311 311 311 311 311 312 313 314 314 315 315 315 315 315 315 315 315 315 316 317 318 319 319 320 320 320
279 279 279 280 281 282 282 282 282 282 282 282 283 283 284 284 283 283 283 283 282 282 281 281 280 281 283 285 286 287 290 292 291 290 289 289 292 295 299 302 302 302 303 306 308 309 310 311 313 314 316 314 312 311 312 312 312 312 312 312 311 311 310 310 311 312 312 313 314 314 314 315 315 314 314 315 315 315 316 316 318 319 319 319 319 319
280 280 281 281 282 283 283 283 283 283 283 283 283 283 283 283 282 282 281 281 281 280 279 279 279 280 283 285 286 287 288 290 290 289 288 288 290 293 298 300 301 301 302 304 306 308 308 310 312 314 315 315 314 312 311 311 311 311 311 311 311 311 310 310 311 311 312 313 313 314 314 314 314 314 314 314 315 315 315 316 317 318 318 318 318 319
281 281 282 282 282 282 282 282 282 283 283 284 284 283 283 281 280 279 279 279 279 279 278 277 278 280 282 283 284 285 287 288 288 287 287 287 288 290 294 297 299 300 300 303 305 307 307 308 310 312 314 316 316 314 311 311 311 311 311 311 311 311 311 310 311 311 312 313 313 314 314 314 314 314 314 314 314 315 315 316 316 317 317 318 319 319
280 280 281 281 281 281 281 281 281 282 282 283 284 283 282 280 279 278 277 278 278 278 277 277 278 278 280 281 282 283 285 287 287 286 286 286 288 290 293 295 296 297 299 302 304 306 307 308 309 311 312 315 316 315 313 311 311 311 311 311 311 311 310 310 310 311 311 312 313 313 314 314 314 314 314 314 314 315 315 315 316 316 317 319 322 322
279 279 280 280 280 280 280 280 280 281 281 282 282 282 281 280 278 277 278 278 278 277 277 277 277 278 278 279 281 282 284 285 285 285 285 285 287 289 291 292 292 294 296 300 303 305 306 307 308 309 311 312 314 315 315 313 312 312 311 310 310 310 310 310 310 310 311 312 312 313 314 314 314 314 313 314 314 314 315 315 316 317 320 322 323 324
277 277 278 278 279 279 279 279 279 280 281 281 281 281 281 280 279 278 278 278 278 277 276 277 277 277 278 278 279 281 284 285 285 285 284 284 285 287 288 289 290 291 293 297 300 303 305 306 308 309 310 311 312 315 316 315 315 314 313 311 310 310 310 310 310 310 311 311 312 313 313 313 314 313 313 313 313 314 315 315 317 319 323 324 324 324
275 276 276 277 277 278 278 278 279 279 280 280 280 280 280 280 279 279 279 279 278 277 277 277 277 277 277 277 277 279 283 284 285 285 284 283 284 285 286 287 288 289 290 292 295 299 302 304 306 308 309 310 312 314 315 316 317 317 316 314 313 312 310 310 310 310 310 311 311 312 312 313 313 313 313 313 313 313 314 315 318 320 324 324 323 323
275 275 276 276 277 277 277 278 278 278 279 279 279 279 279 279 279 279 279 279 279 278 277 277 277 277 277 277 277 278 280 282 284 285 284 283 283 285 286 286 286 287 289 290 292 296 300 302 304 305 307 308 310 312 315 316 317 317 317 316 315 313 311 310 311 311 311 311 311 311 311 312 312 313 313 313 313 314 315 316 318 320 323 323 322 322
275 275 276 276 276 277 277 277 277 278 278 278 278 279 279 279 279 279 279 279 279 279 278 277 277 277 277 277 278 278 280 281 284 285 285 283 283 284 285 285 285 286 288 289 292 296 300 302 303 303 304 305 307 308 311 313 316 317 317 316 315 314 312 313 313 313 313 313 312 311 311 311 311 312 312 313 313 314 315 316 317 318 321 322 321 319
275 275 275 276 276 276 276 277 277 277 277 278 278 278 279 279 279 279 279 280 280 279 279 278 277 277 277 277 277 278 280 282 284 285 285 283 282 282 283 284 284 285 286 288 290 294 300 302 302 302 302 303 304 305 305 308 313 317 317 316 316 315 314 314 314 315 315 314 314 314 313 312 312 312 312 313 313 314 315 315 316 316 317 319 319 318
274 275 275 275 275 275 276 276 276 277 277 277 278 278 278 278 279 279 279 279 280 280 280 279 279 278 278 277 277 278 279 281 283 285 285 284 282 282 282 283 284 285 285 286 288 291 296 299 301 301 301 302 303 303 304 305 309 315 317 317 316 316 315 315 316 316 316 316 316 316 315 315 315 314 314 313 314 314 314 314 314 315 315 316 317 317
274 274 274 274 274 274 275 275 275 276 276 277 277 278 278 278 278 279 279 279 279 280 280 280 280 280 280 279 278 278 279 281 283 285 285 284 283 282 281 282 284 285 285 285 286 288 291 295 299 301 302 302 301 301 302 304 308 313 315 315 316 316 316 316 317 317 316 316 316 316 316 315 315 316 315 314 313 313 313 313 313 313 314 314 315 315
273 273 274 274 274 274 274 274 275 275 276 276 277 277 278 278 278 279 279 279 279 280 280 281 281 281 282 281 281 281 281 282 283 284 284 284 284 282 281 282 283 285 285 285 285 286 287 292 296 300 302 301 301 300 301 304 308 310 310 312 313 315 316 316 317 317 316 315 314 314 314 314 315 315 314 313 312 312 312 312 312 312 312 313 313 313
273 273 273 274 274 274 274 274 274 275 275 276 277 277 278 278 279 279 279 279 279 280 280 281 281 282 282 282 282 283 282 283 283 283 283 284 284 283 282 282 283 284 285 285 285 285 286 289 294 298 300 300 300 301 303 306 306 306 306 308 310 311 313 315 315 315 314 313 313 312 312 313 313 313 313 312 312 312 312 312 312 312 312 312 311 312
273 273 273 273 273 273 273 274 274 275 276 276 277 278 278 279 279 279 279 280 280 280 281 281 281 282 282 283 283 283 284 283 283 284 283 284 284 283 282 282 283 284 285 286 286 286 286 288 292 296 299 299 300 301 304 305 305 305 305 306 307 308 310 311 312 312 311 311 311 310 310 310 311 311 311 311 311 311 310 310 310 311 311 311 311 310
272 272 273 273 274 274 274 274 275 276 276 277 278 278 279 279 279 279 280 280 281 281 281 282 282 282 283 283 284 284 284 284 285 285 285 285 285 284 284 283 283 284 286 286 287 287 287 288 290 294 298 300 300 301 303 303 304 305 306 305 304 304 306 308 309 310 310 310 309 308 308 308 308 308 309 309 309 309 309 309 309 309 310 309 309 307
272 272 273 273 274 274 275 275 276 276 277 277 278 278 278 278 278 278 279 280 280 281 281 282 282 282 283 283 284 284 285 286 286 286 286 286 286 286 285 284 285 285 286 286 287 288 288 289 291 294 299 301 302 301 301 303 304 306 307 305 303 303 304 306 307 308 309 308 308 307 307 306 306 306 307 307 307 308 309 309 309 309 309 309 308 307
273 273 273 273 274 274 275 276 276 277 278 277 277 277 277 278 278 278 278 278 279 279 280 280 281 281 282 283 284 285 286 286 287 287 288 288 288 287 286 286 286 286 287 287 288 289 291 292 293 296 299 301 301 301 301 302 304 305 305 304 303 303 303 304 305 306 307 306 306 306 306 305 305 305 305 305 306 306 307 308 308 308 308 308 308 307
273 273 273 274 274 275 275 276 276 277 277 277 277 277 278 278 278 278 278 278 278 278 279 280 280 281 281 282 283 284 285 286 287 287 288 289 290 289 288 287 287 287 288 288 288 290 292 294 294 296 298 302 302 301 300 300 301 302 303 304 304 302 301 301 303 305 305 305 305 305 305 304 303 303 303 303 303 304 305 305 306 306 307 307 307 307
273 274 274 274 275 275 276 276 276 276 276 276 277 277 278 278 278 278 278 277 278 278 279 279 280 281 281 281 281 282 284 285 286 287 288 289 290 290 289 288 287 288 288 289 290 291 292 293 294 295 297 300 301 300 298 298 299 300 301 303 304 303 301 301 302 303 303 303 303 303 302 302 300 300 299 299 299 299 300 301 302 303 304 305 305 305
274 274 274 274 275 275 275 275 275 276 276 276 277 277 277 278 278 278 278 277 277 278 279 279 280 280 280 280 280 281 282 283 285 286 286 288 290 291 290 290 290 290 290 291 291 290 290 291 293 295 297 299 299 299 297 297 298 299 301 302 303 303 302 302 302 301 301 300 300 300 300 299 299 298 296 296 296 296 297 298 299 300 301 302 302 302
274 274 274 274 274 274 274 275 275 275 276 276 277 277 277 278 278 278 278 277 277 278 278 279 279 279 279 279 279 280 281 282 283 284 285 286 288 290 290 291 291 291 291 290 290 289 289 289 291 293 296 296 296 296 297 297 297 297 297 299 299 299 299 299 299 299 299 298 297 297 298 298 298 297 295 294 294 294 295 296 296 297 298 299 300 300
274 273 273 273 273 274 274 275 275 275 275 276 276 277 277 277 278 278 278 277 277 277 278 279 279 279 278 278 279 279 279 280 281 282 283 284 286 289 289 290 290 290 290 289 289 289 288 288 289 291 293 293 293 293 293 294 295 296 296 297 297 297 297 296 296 296 296 296 296 296 297 298 297 295 294 293 293 293 293 294 295 296 297 297 297 298
274 274 273 273 273 273 274 274 274 274 275 275 276 276 277 277 277 277 277 277 277 277 278 278 278 278 278 278 279 279 279 279 280 281 281 282 284 286 288 289 290 290 290 290 289 289 289 288 288 289 290 290 291 290 290 291 292 293 294 295 295 295 294 294 294 295 295 295 296 297 297 297 296 294 294 293 292 292 292 293 294 295 296 296 296 297
274 274 274 274 273 273 273 273 274 274 274 275 275 276 276 277 278 278 277 277 277 277 277 277 277 277 278 278 278 279 279 280 280 280 281 281 282 284 286 288 289 290 290 290 290 290 289 289 289 289 289 289 289 289 289 290 290 291 292 293 293 293 292 292 293 293 294 295 295 296 297 297 296 295 294 293 292 291 292 293 294 295 296 296 296 297
275 274 274 274 273 273 273 273 274 274 274 275 275 275 276 276 277 277 277 277 277 277 276 277 277 277 277 278 278 279 279 279 279 280 280 281 281 282 283 286 288 289 289 289 289 289 289 288 288 289 290 290 289 289 288 289 290 290 291 291 291 292 291 292 292 293 293 294 294 294 295 296 296 296 295 293 291 291 291 292 292 294 295 296 297 297
274 275 275 274 274 273 273 273 274 274 274 274 275 275 275 275 276 276 276 277 276 276 276 276 277 277 277 277 278 278 278 279 279 279 280 281 281 282 282 284 286 288 289 289 288 288 288 287 286 286 287 289 290 289 288 289 289 289 289 290 290 291 291 291 292 292 293 293 294 294 294 294 295 295 294 293 292 291 291 291 292 293 295 296 296 297
Wind_Speed
6 7 9 11 11 10 9 11 11 11 10 9 9 9 10 11 11 11 12 11 10 8 8 7 8 8 8 6 6 7 9 10 12 12 12 12 11 11 11 10 9 7 6 6 7 8 8 8 7 7 6 5 3 3 4 9 14 19 20 19 18 19 20 23 25 27 28 29 30 30 30 29 28 26 24 23 21 20 19 17 16 15 15 16 17 18
7 7 8 10 11 10 8 10 11 10 10 10 10 9 10 11 11 10 9 9 9 9 8 8 9 9 8 7 7 8 10 11 12 13 12 12 11 11 10 11 10 8 6 6 6 7 8 8 7 6 5 4 3 3 3 7 12 17 20 19 19 18 19 21 23 25 26 27 28 28 29 29 29 28 27 24 22 20 19 17 16 14 13 14 15 17
7 7 7 8 9 9 8 9 10 10 10 10 10 10 12 12 10 8 7 7 7 8 8 8 8 9 8 7 7 9 10 12 13 13 13 12 11 10 10 10 10 9 7 6 6 7 8 8 7 6 5 4 4 4 3 5 9 13 18 19 19 18 19 20 21 23 24 26 27 27 27 27 27 27 26 24 22 20 18 17 15 14 13 13 14 15
7 7 8 7 7 8 8 8 9 9 9 9 10 11 12 11 9 7 7 7 7 7 7 8 8 8 8 7 7 9 11 13 14 14 13 12 11 10 9 10 10 9 7 6 5 6 8 8 7 6 5 5 5 5 4 4 6 10 15 18 18 18 18 18 19 20 22 24 25 25 25 24 24 24 23 22 20 19 17 16 15 15 15 14 14 14
6 7 7 7 6 6 7 8 8 8 8 8 9 10 11 9 8 7 7 7 7 7 7 7 7 8 7 7 8 10 12 14 14 14 13 13 11 10 9 9 9 9 7 6 5 6 7 8 7 6 5 5 6 5 4 3 5 8 12 16 18 18 18 17 17 17 18 20 21 22 21 20 19 19 19 19 18 18 16 16 16 16 17 16 15 15
6 6 6 6 5 5 6 7 7 7 7 7 8 9 8 8 7 7 7 6 6 6 6 6 6 7 7 7 8 11 13 14 14 14 13 12 11 10 9 9 9 9 8 6 5 5 6 7 7 7 6 6 6 5 3 2 3 5 9 13 16 18 18 17 16 15 15 17 18 19 18 17 16 16 16 17 17 17 17 16 17 17 18 18 17 16
6 6 6 5 5 5 5 5 6 6 6 7 7 7 7 7 7 7 7 6 6 6 6 6 6 6 6 7 8 11 12 13 13 12 12 11 11 10 9 9 9 8 7 6 5 5 6 7 7 7 7 7 6 5 3 3 3 4 6 10 13 17 19 18 16 15 14 15 16 17 17 16 16 15 15 16 17 18 18 18 19 19 19 19 18 17
6 6 6 6 5 5 5 5 5 5 6 6 7 7 7 6 6 7 7 6 6 5 6 6 6 6 6 6 7 8 9 9 9 9 9 9 9 8 8 8 8 8 7 6 5 4 5 6 7 8 7 7 6 5 3 3 3 4 6 8 11 15 18 18 17 16 14 15 16 16 17 17 16 16 16 17 18 19 20 21 22 23 23 21 20 18
7 7 6 5 5 6 5 4 4 4 5 6 6 7 7 7 7 6 6 5 5 5 5 6 6 6 6 6 6 7 7 7 7 7 8 7 6 6 6 7 7 7 7 6 5 4 4 6 6 7 6 6 5 4 4 4 4 4 5 7 10 13 17 19 19 17 15 15 15 16 17 17 16 16 16 17 18 19 21 22 24 25 27 24 22 20
7 7 6 6 5 5 5 5 4 4 5 5 6 6 6 6 7 7 6 5 5 4 4 5 6 6 6 6 6 6 7 7 9 10 10 7 6 5 4 5 5 5 6 5 4 4 4 5 6 6 5 4 4 4 4 3 4 4 5 7 9 11 15 18 19 19 18 16 16 16 16 16 16 16 16 16 17 18 20 21 23 25 27 26 23 21
6 6 6 5 5 4 5 5 4 4 5 5 5 5 5 5 6 7 7 7 6 5 5 5 5 6 6 6 5 5 6 6 7 9 9 7 6 5 4 4 4 4 5 4 4 3 3 4 5 5 4 2 3 4 4 3 3 4 5 7 8 10 11 15 17 19 19 18 17 17 17 17 16 16 15 15 16 16 17 19 21 23 25 25 24 23
5 5 5 5 4 4 4 4 4 4 5 5 5 5 5 5 6 6 7 7 7 7 6 6 5 5 6 6 5 5 5 6 6 7 7 5 4 3 3 3 3 4 4 4 3 3 3 3 4 5 4 2 2 4 5 4 3 4 5 6 8 9 10 12 14 17 18 18 18 18 18 17 17 16 16 15 15 15 16 17 19 20 22 24 24 23
5 5 4 5 4 4 4 5 5 4 4 5 5 6 6 6 6 6 5 6 6 6 7 6 6 5 6 4 4 4 5 6 6 6 6 5 4 4 3 2 2 3 3 3 2 2 2 3 4 5 4 2 2 4 6 6 5 4 4 6 7 9 9 10 12 14 16 17 18 18 18 18 17 17 16 16 15 15 15 16 17 19 21 23 24 24
5 5 5 5 5 4 4 5 5 5 5 5 5 6 6 6 6 6 6 6 6 6 6 6 6 5 4 2 2 4 5 6 6 6 6 5 5 5 4 4 3 2 3 3 2 2 1 1 2 3 4 3 3 4 6 7 6 5 5 6 7 9 10 10 11 12 13 15 16 17 17 18 17 17 17 16 16 15 15 15 16 17 19 21 23 24
6 6 6 6 5 4 4 5 5 5 5 5 5 6 6 7 7 6 6 6 6 6 6 6 6 5 3 1 3 4 5 6 5 5 6 5 5 5 5 4 4 3 3 4 3 3 3 2 3 3 4 4 3 4 6 7 7 7 6 6 7 8 9 10 10 11 11 13 14 15 16 16 16 17 17 16 16 16 15 15 15 16 16 19 21 24
5 6 6 6 5 5 5 5 5 6 6 5 6 6 7 7 6 6 6 6 6 6 6 6 6 4 2 1 3 5 6 6 6 6 6 6 5 5 5 5 4 4 4 4 4 4 3 3 3 4 5 4 3 4 5 7 8 8 7 6 6 7 9 10 10 11 11 12 12 13 14 15 15 16 16 16 16 15 15 15 15 15 15 17 19 22
5 5 6 6 6 5 5 5 6 6 6 6 6 6 7 7 6 6 6 6 5 5 5 5 5 4 3 2 3 5 7 6 6 6 6 6 5 5 5 5 5 4 4 4 4 4 3 3 3 4 4 4 4 5 6 7 9 9 8 7 6 6 7 9 10 11 11 12 12 13 13 14 14 15 15 15 15 15 15 15 14 14 14 15 17 19
5 5 5 6 5 5 5 5 5 5 5 6 6 6 7 6 6 5 5 5 5 5 5 5 4 4 4 3 3 5 7 6 6 6 6 6 5 5 4 5 5 5 4 3 3 3 3 3 3 4 3 3 4 5 6 7 8 9 9 7 5 5 6 8 9 11 11 12 12 13 13 14 14 14 15 15 15 15 15 15 14 14 14 14 15 17
6 5 5 5 5 5 5 5 5 5 6 6 6 7 7 7 6 5 5 5 5 5 5 5 4 4 4 5 5 5 6 6 6 5 5 6 5 4 4 4 4 5 3 1 1 1 2 2 2 2 2 3 4 5 6 7 8 9 9 7 5 4 4 6 8 10 11 12 12 13 13 14 14 14 14 14 15 15 15 15 15 15 14 14 15 16
6 6 5 5 5 6 6 5 5 6 6 7 7 7 7 7 6 6 5 5 5 5 5 5 5 5 5 6 6 6 6 6 5 5 5 5 5 4 3 4 4 4 3 1 1 1 2 1 2 2 3 4 4 5 6 7 8 9 9 7 5 4 4 5 7 9 10 11 12 12 13 13 13 14 14 14 15 15 15 16 16 15 15 15 16 16
6 6 6 5 5 5 5 5 6 7 7 8 7 7 7 6 6 5 5 6 6 6 6 5 5 5 5 6 7 7 6 5 5 4 3 4 4 3 2 3 4 4 3 1 1 1 2 1 1 2 3 4 5 6 6 7 8 8 8 7 6 4 4 5 6 8 9 10 11 12 12 12 13 13 14 14 15 15 16 16 16 16 16 17 17 17
6 6 7 7 6 6 6 6 7 8 8 8 7 7 6 6 6 6 6 6 6 6 6 6 6 6 6 7 7 7 6 4 3 3 2 3 3 3 2 2 3 3 3 2 1 1 1 1 1 1 3 5 6 7 7 8 8 8 8 7 6 5 4 5 6 7 9 10 11 11 12 12 12 13 13 14 15 16 16 17 17 17 17 18 18 19
7 7 7 7 7 7 7 7 7 7 7 7 7 7 6 6 6 6 6 6 6 6 6 7 7 7 7 7 7 7 6 4 3 2 2 3 3 3 2 2 3 3 3 2 2 2 2 1 1 1 3 6 7 7 8 8 8 8 8 7 6 5 4 4 6 7 9 10 11 12 12 12 12 12 13 14 14 15 16 17 18 18 18 18 19 19
7 7 7 7 7 7 7 7 6 6 6 6 6 6 6 6 5 5 5 6 6 6 6 7 7 7 7 7 6 5 4 3 2 2 2 3 3 3 3 2 2 2 2 2 2 2 1 1 1 1 2 5 7 8 8 8 9 9 9 7 6 5 4 4 5 7 9 10 11 12 12 12 12 12 12 13 14 15 16 17 18 18 18 18 18 19
7 7 7 7 8 9 9 8 8 8 7 6 6 6 6 6 6 5 6 5 5 6 6 7 7 7 5 5 4 2 1 2 2 2 2 2 3 4 3 3 2 2 3 3 2 2 1 1 1 2 2 4 6 7 8 9 9 10 10 9 7 6 4 4 5 6 8 9 10 11 12 12 11 11 12 13 14 15 16 17 18 18 18 18 18 18
10 10 10 11 13 14 14 14 13 12 12 9 8 6 6 5 5 5 5 4 5 6 6 6 6 6 5 4 3 2 2 3 4 4 3 3 3 4 4 4 4 3 3 3 3 2 2 1 1 2 3 4 6 7 8 9 10 11 11 10 9 7 6 5 5 6 7 9 10 10 11 11 11 11 12 13 13 15 16 17 17 18 18 17 17 17
14 15 16 16 16 16 15 15 14 14 14 13 11 9 6 5 4 4 4 4 5 5 6 6 6 6 5 4 3 3 3 3 3 4 4 3 3 3 3 4 4 4 4 4 3 2 2 1 1 1 2 3 5 6 7 9 10 11 13 12 11 9 8 7 6 7 8 9 10 11 11 11 11 12 12 13 14 15 15 16 17 17 17 15 14 14
15 15 15 15 15 15 14 14 13 13 13 13 13 11 8 5 4 4 4 4 4 5 5 6 5 5 4 4 4 3 3 2 3 4 4 3 3 3 3 4 5 5 5 4 3 2 2 2 1 1 1 1 3 5 6 8 9 11 13 13 13 11 9 8 8 8 9 10 11 12 12 12 12 12 12 13 14 15 16 16 17 16 15 12 10 9
13 14 14 14 14 13 13 12 12 12 12 13 12 10 7 4 3 3 3 4 4 4 5 5 5 4 4 5 5 4 2 1 3 4 5 4 3 3 3 4 5 5 4 3 2 2 2 1 1 0 1 1 2 4 5 6 7 9 11 13 13 12 11 9 8 8 9 10 11 12 13 13 13 13 13 13 14 15 16 16 16 14 11 9 8 7
10 11 11 11 11 11 10 9 9 10 11 11 11 9 6 4 3 3 3 3 4 4 5 5 5 5 5 5 4 3 1 2 3 4 5 4 3 3 4 4 4 4 4 3 2 1 1 0 0 0 0 0 2 3 4 5 5 6 7 10 11 11 11 10 9 9 9 9 11 12 13 14 14 13 13 12 13 14 15 16 14 11 8 7 7 6
9 9 8 8 8 8 7 7 7 7 8 9 9 7 6 4 3 3 3 3 3 4 4 4 4 4 4 4 3 2 1 2 4 5 5 4 3 3 4 4 4 4 4 3 3 2 1 0 1 1 1 0 1 2 4 4 5 5 5 6 7 8 10 10 9 8 8 8 9 10 12 13 13 13 12 12 12 13 14 14 13 9 6 6 6 6
8 7 7 7 7 6 6 6 6 6 6 6 6 6 5 5 4 4 3 3 3 3 4 4 4 4 4 3 3 3 2 2 4 6 5 4 3 3 3 3 4 4 3 3 3 3 2 1 1 1 1 0 0 1 2 3 4 4 5 5 5 6 8 8 8 7 6 7 7 8 9 11 12 12 12 12 12 12 12 13 11 8 6 6 6 6
7 7 6 6 6 6 6 6 6 5 5 5 5 5 5 5 4 4 4 3 3 3 4 4 4 4 4 4 4 4 4 4 4 5 6 4 3 2 3 3 4 4 3 3 3 3 3 1 1 1 1 1 1 1 1 1 3 4 4 4 4 5 6 7 6 6 5 5 5 6 7 9 10 11 11 12 12 12 12 11 10 8 6 5 6 7
7 7 7 6 6 6 6 6 6 6 6 5 5 5 5 5 5 4 4 4 4 4 4 4 4 4 5 4 4 5 5 4 4 5 5 4 3 3 3 3 4 4 4 3 4 4 3 2 2 1 1 1 1 1 1 1 1 3 4 4 4 5 5 5 5 5 5 5 5 5 5 6 8 9 10 11 11 11 11 10 9 8 7 7 7 8
7 7 6 6 6 6 7 7 7 6 6 6 6 6 6 5 5 5 5 4 4 4 4 4 4 5 5 5 5 5 5 5 5 6 5 4 3 3 3 3 3 4 4 3 4 4 3 3 2 2 1 1 1 1 1 1 0 2 4 4 4 4 5 5 5 5 5 5 5 5 5 5 6 7 8 9 10 11 11 11 10 9 9 9 9 9
6 6 6 6 6 7 7 7 7 7 6 6 6 6 6 6 5 5 5 5 5 5 5 5 5 5 5 5 6 6 6 6 6 6 6 4 3 3 2 3 3 3 3 3 3 3 3 3 3 2 2 1 1 1 1 1 0 2 4 4 4 4 5 5 4 4 5 5 5 5 5 5 5 5 6 8 10 12 12 12 11 11 11 12 12 11
6 6 6 6 6 6 7 7 7 6 6 6 6 6 6 6 6 6 6 5 5 6 6 6 6 6 7 7 7 7 8 7 7 7 7 5 4 3 3 3 3 3 3 3 3 3 3 4 3 2 1 1 1 0 1 0 1 3 3 3 3 4 4 5 4 4 4 5 5 5 5 5 5 5 6 9 11 12 13 13 12 12 13 13 14 15
6 6 6 6 6 6 6 6 6 6 7 7 7 7 7 7 7 7 6 6 6 7 6 6 6 7 8 9 9 9 9 10 10 10 9 7 5 4 4 4 4 4 4 3 3 3 3 3 3 2 1 1 1 1 0 1 2 3 3 3 3 4 4 4 4 4 5 5 6 6 6 6 6 6 6 7 8 8 9 9 10 11 13 14 15 17
7 7 7 7 7 7 6 6 7 7 7 7 7 7 7 7 7 7 7 6 7 7 7 6 6 6 8 9 10 11 11 11 11 11 10 8 6 5 5 5 5 5 4 4 4 3 3 3 3 3 2 2 1 1 1 2 3 4 4 4 4 4 4 4 5 5 5 6 7 7 7 7 7 7 6 6 7 7 8 7 8 9 11 11 12 15
7 7 7 7 7 7 7 7 7 7 7 7 7 7 7 6 6 6 6 6 6 6 7 7 6 6 6 7 8 9 9 9 9 9 9 8 7 6 5 5 5 5 5 4 4 4 4 4 5 5 5 3 1 0 1 2 3 4 5 4 3 3 3 4 4 5 5 6 7 8 7 7 7 6 6 6 7 7 8 7 7 8 10 10 10 11
8 8 7 7 7 7 7 7 7 7 7 7 6 6 6 6 6 6 6 6 6 6 6 6 6 5 5 5 6 6 7 7 8 8 7 8 8 7 6 6 5 5 5 4 4 4 5 5 6 7 6 3 1 1 2 2 3 4 5 4 4 4 3 4 5 5 6 6 7 8 9 8 8 7 6 6 6 6 7 7 8 8 8 9 10 11
8 8 8 7 7 7 7 7 7 7 7 6 6 6 5 6 6 6 6 6 6 6 6 6 5 5 5 4 4 4 4 5 5 6 7 8 8 8 7 6 5 5 4 5 5 5 5 6 6 6 5 3 1 1 2 2 2 2 4 5 6 6 5 5 4 5 6 7 7 8 10 9 8 7 7 6 6 6 6 7 8 9 8 8 9 10
8 7 7 7 7 7 8 8 7 7 6 6 6 6 6 6 6 6 6 6 6 6 6 6 6 5 5 4 4 3 3 4 4 6 7 7 6 6 6 6 5 5 4 4 4 5 5 5 5 5 5 2 1 2 2 2 2 3 4 6 7 7 5 3 3 4 6 7 7 8 9 9 8 8 7 6 6 5 5 6 6 7 7 8 8 8
7 7 7 7 7 7 7 7 7 7 6 6 6 6 6 6 7 7 6 6 6 6 6 6 5 5 5 5 4 4 4 4 5 6 6 8 6 3 3 5 6 5 5 4 3 4 4 4 4 4 4 2 1 2 3 3 2 3 3 5 6 7 6 5 5 5 6 6 6 7 8 9 9 8 8 7 6 5 5 5 4 4 4 6 7 8
7 7 7 7 7 7 7 8 7 7 7 7 7 7 7 7 7 7 6 6 6 6 6 6 5 4 4 4 5 4 4 5 5 5 6 8 8 6 1 2 4 4 4 2 2 3 4 4 4 4 3 2 2 3 3 3 3 2 2 3 5 7 7 6 6 6 7 7 6 7 8 9 10 9 8 7 6 6 5 5 5 5 5 5 6 8
7 7 8 7 8 8 8 8 8 8 7 7 7 7 7 7 7 6 6 6 6 6 6 6 5 4 4 4 5 5 5 5 5 5 6 7 7 6 5 3 2 2 2 3 4 5 4 4 4 4 3 3 4 4 4 4 3 3 3 4 5 7 7 6 6 6 7 8 7 7 8 9 10 10 8 7 6 6 6 6 6 5 5 6 6 8
8 8 8 8 8 8 8 8 8 8 8 8 7 7 7 7 7 7 6 7 6 6 6 6 5 5 5 5 5 5 5 5 5 6 6 6 6 5 4 4 4 4 4 5 6 7 6 6 6 5 3 3 4 4 4 4 4 4 3 4 5 6 7 6 5 6 7 7 7 7 7 8 9 10 10 8 7 6 5 6 6 6 5 5 6 7
8 8 8 8 8 8 8 8 8 8 8 8 8 8 7 8 8 8 7 7 7 6 6 6 5 5 5 5 5 5 5 5 5 5 5 6 6 5 4 3 3 3 5 6 8 8 7 8 8 8 6 5 4 3 4 4 4 4 3 3 4 6 7 6 6 5 6 6 7 8 8 8 9 10 10 9 7 6 5 6 6 6 5 5 6 7
8 8 8 8 8 8 8 8 8 8 8 8 8 8 8 8 9 9 7 7 7 6 6 6 6 6 5 5 5 5 5 5 4 4 5 5 5 5 4 2 1 2 3 5 6 6 6 8 10 10 10 8 6 4 3 4 4 4 4 3 4 5 6 7 6 6 5 6 7 7 6 6 7 9 10 10 9 7 6 6 6 6 5 5 5 6
8 8 8 8 8 8 8 8 8 9 9 9 9 8 8 8 8 8 7 7 7 6 6 6 6 6 6 5 5 5 5 5 4 4 4 4 5 5 5 3 2 0 1 3 3 3 3 5 7 10 13 12 10 7 4 4 4 4 4 4 4 4 6 6 6 5 5 6 7 7 6 6 6 7 8 10 10 9 8 7 6 6 5 5 6 7
8 8 8 8 8 8 8 8 8 9 9 9 9 8 8 8 8 7 7 7 7 7 6 6 6 6 6 6 6 5 5 5 5 5 5 4 5 5 5 4 3 2 0 1 2 2 2 2 3 6 10 14 15 12 6 4 3 4 4 4 3 3 4 5 5 5 6 6 6 7 7 7 6 6 7 9 10 10 8 7 7 6 5 6 7 8
Wind_Direction
313 315 316 316 315 313 313 319 320 319 317 319 321 320 317 315 312 309 307 310 314 317 315 306 300 297 298 301 303 304 304 301 299 299 299 301 303 306 308 310 314 322 336 349 355 356 354 354 353 350 345 337 319 279 249 217 206 200 195 193 190 188 186 186 187 189 192 195 197 199 200 201 201 199 197 193 191 190 192 194 195 193 188 183 181 180
315 315 314 315 314 313 311 316 317 316 316 318 319 318 315 311 308 307 307 313 318 322 320 314 309 308 313 318 316 310 304 298 295 294 294 295 296 299 303 305 308 313 325 343 354 358 356 354 351 345 335 318 294 263 242 215 205 199 195 193 191 190 187 185 185 187 189 191 193 194 196 198 199 200 199 196 193 192 193 195 196 196 193 188 182 179
319 316 315 315 314 312 310 314 314 314 315 317 319 316 311 306 304 303 306 313 317 320 320 318 315 314 316 316 311 304 298 293 290 290 290 289 290 292 295 298 300 304 315 334 351 359 358 353 347 337 319 292 267 247 235 212 200 195 193 192 192 190 188 185 185 186 188 191 192 193 193 194 196 197 197 195 193 192 192 195 196 197 198 194 187 180
319 317 315 313 312 311 310 312 312 313 318 321 319 315 308 304 302 303 307 312 315 317 318 317 317 317 317 318 311 302 293 288 286 286 286 286 285 286 287 291 293 297 305 324 346 358 359 352 343 329 304 273 251 237 229 209 192 188 188 190 190 190 188 186 185 185 188 191 193 194 194 193 193 193 193 191 190 189 190 192 195 197 200 199 193 184
318 315 313 311 310 310 312 310 311 315 323 323 319 313 308 305 305 306 309 313 316 317 316 316 317 318 316 318 311 302 292 287 283 282 281 282 282 281 281 283 287 291 298 315 340 356 358 350 339 322 293 264 245 233 227 208 185 179 181 186 188 189 188 186 184 184 187 190 193 195 194 193 192 191 190 189 188 187 186 189 193 197 200 202 198 191
316 313 310 310 310 311 311 309 313 321 327 323 318 313 308 307 307 309 312 316 318 318 317 316 315 315 313 313 308 301 295 289 284 280 277 277 276 276 275 276 280 285 292 307 330 349 355 349 336 317 289 262 245 234 224 212 182 171 172 181 185 187 187 186 184 183 183 187 190 193 194 194 193 192 192 191 190 189 189 191 194 197 200 202 201 196
313 311 309 310 309 308 306 307 316 325 329 323 318 314 310 309 311 313 316 318 319 319 318 316 314 312 310 309 305 301 297 292 287 281 273 271 269 268 267 269 273 279 287 300 320 339 348 345 333 314 288 262 244 230 217 208 182 164 159 171 180 185 188 187 185 182 180 180 183 186 189 191 192 193 194 195 195 196 196 197 199 201 202 204 203 200
311 311 311 311 310 307 303 306 317 327 329 323 318 315 313 315 316 317 315 315 318 321 321 319 317 314 310 307 303 299 297 295 293 286 276 266 261 257 258 260 265 272 282 293 310 328 340 340 329 312 285 259 239 222 206 204 187 165 152 161 174 183 189 189 188 185 180 176 176 178 180 183 186 188 191 195 197 198 198 200 202 205 206 206 205 203
311 312 312 314 312 309 306 307 317 327 328 320 315 313 314 318 320 319 317 319 324 328 326 324 320 317 311 307 301 297 294 294 293 290 283 273 262 253 251 251 257 266 277 287 300 317 331 336 326 308 279 249 224 203 191 195 187 170 153 154 167 179 189 191 191 188 183 177 174 173 173 175 176 179 182 187 191 193 195 196 199 203 206 206 204 202
312 313 313 313 312 309 307 310 317 324 323 314 308 307 311 320 323 324 324 327 331 333 330 326 321 316 312 307 303 299 298 295 291 286 280 280 279 275 267 258 256 262 274 281 291 305 321 328 320 305 273 235 195 168 159 173 176 167 155 150 158 172 184 189 191 190 187 182 177 174 172 172 172 173 174 177 181 184 186 188 191 195 201 202 202 200
313 314 313 312 310 309 308 312 317 320 320 314 310 310 315 326 329 328 327 328 330 332 330 325 319 314 311 309 308 309 309 305 298 292 284 285 288 290 283 271 259 256 265 271 279 289 303 313 307 295 269 217 154 132 128 137 152 159 157 153 155 163 175 184 188 189 188 185 181 178 176 174 173 173 172 172 174 176 177 180 183 187 193 197 198 198
316 316 313 311 310 311 314 316 318 320 325 326 326 327 331 334 332 327 323 324 327 329 328 322 315 308 305 306 312 321 325 320 314 310 305 311 318 318 300 269 249 243 250 258 263 270 282 293 290 282 264 220 137 117 113 114 127 145 156 157 159 162 169 178 183 186 187 186 184 182 180 178 177 176 174 173 172 172 172 173 176 180 186 191 194 196
317 316 311 309 311 316 322 324 325 328 336 339 337 335 331 330 326 322 318 319 324 327 324 316 310 303 296 299 321 341 339 331 325 321 320 329 340 345 334 303 255 231 231 238 241 244 262 274 274 269 257 226 146 117 110 108 113 127 146 157 162 165 169 174 178 182 184 185 185 184 183 182 180 179 178 176 174 172 171 171 173 176 181 187 190 193
319 316 312 311 315 322 330 330 330 332 338 340 336 330 324 321 320 320 318 321 324 324 318 310 307 303 292 310 15 15 350 338 330 325 324 329 335 340 337 323 298 255 222 218 210 198 187 226 250 253 248 222 162 125 112 107 109 117 134 151 162 166 169 173 176 179 182 183 184 185 184 183 181 180 179 177 176 174 172 172 173 176 180 184 187 189
320 317 313 314 318 326 333 331 330 329 333 334 331 326 319 318 320 323 326 327 327 324 318 313 309 303 278 6 41 31 5 351 340 332 328 324 325 328 329 321 306 277 234 213 197 182 170 190 213 227 230 214 177 139 117 109 108 112 122 142 156 163 168 171 175 178 180 182 182 182 182 180 179 178 177 177 176 175 174 173 174 176 179 182 184 186
320 317 314 315 319 326 334 330 327 327 329 331 330 327 322 321 323 326 329 329 328 326 326 327 323 315 291 42 52 38 17 1 348 336 327 318 314 315 322 316 305 286 249 215 198 184 174 192 211 221 220 196 154 126 115 109 106 105 110 124 142 155 164 168 172 176 178 179 179 179 178 176 175 174 174 175 175 175 175 175 175 176 178 181 183 183
318 316 314 315 318 325 331 326 324 324 327 330 331 327 321 318 320 323 328 331 330 329 332 334 332 328 321 351 25 31 22 5 349 334 322 310 305 308 318 312 304 291 265 221 200 188 178 189 209 219 214 178 142 119 112 107 103 101 101 107 121 142 157 165 169 173 175 176 176 175 175 173 172 172 172 172 174 175 176 176 177 177 178 181 182 183
316 315 313 314 318 322 326 322 321 324 328 332 330 325 316 313 315 321 330 332 332 330 331 330 328 323 319 322 343 5 13 1 346 329 317 305 300 303 313 308 300 291 273 231 203 191 186 192 209 219 206 152 131 119 112 106 101 98 96 96 104 123 146 159 166 169 172 173 173 173 172 171 171 171 171 172 174 176 177 178 179 179 179 180 183 184
315 314 313 316 318 320 320 318 321 326 332 332 328 321 313 313 317 325 332 333 331 327 323 320 317 312 309 311 323 340 357 351 339 324 311 300 297 299 305 300 294 288 280 249 218 225 226 202 196 188 163 139 131 123 114 106 101 97 94 94 97 110 132 152 161 166 168 170 171 171 170 170 171 171 172 173 175 177 178 180 181 181 180 181 183 185
312 312 313 317 318 316 313 314 319 326 330 328 323 316 310 314 321 328 332 331 327 322 316 312 309 307 305 307 314 325 340 339 331 318 303 293 290 290 296 296 294 292 294 303 321 310 286 238 170 144 134 143 142 136 124 113 106 101 98 98 101 109 125 141 153 160 164 166 167 167 168 168 169 171 173 174 176 177 178 179 180 180 180 179 181 184
309 308 313 317 315 311 309 313 318 322 325 323 317 311 308 315 322 328 330 328 323 318 314 310 306 306 306 305 307 313 323 325 322 314 300 291 286 285 290 298 300 300 302 310 319 314 295 294 157 146 143 158 159 152 141 127 118 112 108 108 109 114 121 134 145 154 160 161 162 163 163 164 166 169 172 174 176 177 177 178 179 179 178 178 179 182
306 306 311 312 309 305 305 309 313 318 322 321 316 310 312 321 326 329 328 324 319 315 311 307 304 303 301 297 296 297 300 299 300 300 298 291 289 289 295 301 302 300 299 309 324 337 343 356 46 137 147 163 167 165 154 141 133 126 121 118 116 116 121 133 145 153 158 159 159 158 158 160 162 165 169 172 173 175 175 176 176 176 175 175 176 178
304 305 308 307 306 304 304 307 311 317 322 318 313 310 314 324 327 326 322 317 312 309 306 302 298 294 290 285 282 279 275 268 266 274 283 284 289 294 304 298 294 292 294 311 327 344 0 356 357 145 146 164 168 167 161 149 142 137 131 127 121 117 118 131 145 153 157 158 158 157 156 157 159 161 165 167 169 171 172 173 173 173 172 171 171 172
305 304 304 304 303 304 304 309 314 319 322 315 310 308 313 322 322 317 309 305 303 303 303 300 297 291 283 276 272 270 265 253 247 254 269 281 289 292 289 282 283 289 296 308 317 325 339 318 265 189 151 162 166 166 162 154 147 141 138 135 131 127 122 129 144 153 156 156 156 156 155 155 157 159 161 163 165 167 169 170 171 170 170 168 166 165
310 306 304 304 306 308 311 316 320 322 320 315 310 310 316 322 319 310 299 299 303 308 309 306 302 297 291 285 284 293 333 350 332 305 294 290 288 290 292 300 309 312 308 306 307 308 308 267 212 188 170 159 161 163 162 156 150 145 142 142 142 143 144 144 147 152 153 153 153 153 154 155 158 160 161 161 163 164 166 168 168 168 167 165 163 161
319 315 313 313 314 316 319 322 323 323 321 317 315 317 326 327 321 311 304 313 321 322 317 310 306 303 302 302 311 336 10 11 3 351 330 313 303 305 314 327 331 324 311 304 302 303 300 270 210 187 178 159 154 154 158 156 152 149 147 147 150 154 158 157 154 152 151 150 151 152 153 156 159 162 163 163 163 163 164 166 166 165 163 161 159 157
324 322 320 320 321 323 326 327 327 325 322 321 324 330 338 335 325 317 319 332 333 326 316 311 310 310 309 312 320 333 347 7 11 3 338 313 298 298 313 329 330 321 310 302 298 296 294 286 260 211 185 153 142 143 153 155 154 152 150 151 153 157 161 162 159 155 153 152 152 153 154 157 160 163 166 166 165 165 164 164 163 161 160 159 158 156
328 326 326 326 327 328 330 330 329 327 325 326 333 340 348 343 331 325 332 337 330 319 310 311 313 316 316 318 318 318 317 359 14 2 333 306 290 294 321 334 333 325 313 302 294 287 279 276 283 283 257 134 128 133 144 150 153 153 153 153 154 157 160 162 160 158 155 154 154 154 155 157 160 163 167 168 168 167 165 163 161 158 157 157 157 156
327 327 327 327 327 328 329 329 328 327 327 332 340 348 355 348 336 330 333 331 321 312 307 310 313 316 315 311 306 299 288 21 23 3 337 313 299 308 334 338 336 330 319 308 295 280 263 255 265 295 288 118 130 135 138 144 150 153 152 152 153 155 158 161 161 160 157 156 154 154 154 155 157 160 163 166 168 168 166 163 160 158 156 157 156 155
327 326 325 325 326 326 327 326 325 326 330 336 342 348 352 346 336 328 326 319 313 309 308 310 312 314 315 310 303 294 274 63 38 10 347 326 316 321 334 335 338 338 330 319 310 294 262 243 7 346 301 178 155 150 144 145 149 152 151 150 151 154 156 159 161 161 159 157 154 152 151 152 153 155 158 161 164 166 165 163 162 160 158 158 157 156
326 325 323 324 324 324 324 324 325 328 332 337 341 344 345 339 331 323 318 313 310 307 306 306 308 311 313 312 307 305 331 38 29 14 356 332 320 324 332 331 334 339 338 327 318 311 303 12 18 353 327 231 170 159 150 147 148 149 148 148 151 153 154 157 159 160 160 158 154 151 148 148 149 151 154 156 159 162 164 165 164 163 162 162 162 160
325 324 324 324 324 325 326 327 329 331 334 337 339 339 337 332 327 320 315 312 308 304 300 299 300 302 302 299 295 298 310 340 0 3 355 332 316 318 330 328 328 330 332 321 308 302 305 336 1 348 330 317 187 153 142 142 142 141 141 142 145 148 150 153 156 160 162 158 154 150 146 145 147 149 151 153 155 157 161 164 166 168 169 166 162 155
324 324 325 327 328 330 331 332 333 334 335 336 336 334 331 328 323 319 314 309 304 299 295 294 295 295 294 289 284 283 287 303 331 346 348 332 317 314 327 327 326 325 325 315 300 292 294 311 328 326 318 324 340 13 48 109 129 135 137 136 137 140 144 150 155 161 165 161 157 151 146 144 145 147 149 150 151 152 154 159 164 167 168 161 152 143
326 327 330 332 334 335 335 335 336 337 337 336 335 332 329 326 323 319 315 309 303 296 290 290 291 291 291 287 283 280 281 291 314 332 341 331 320 315 322 321 323 326 330 327 316 306 296 310 319 314 310 318 338 1 22 33 104 132 137 134 132 134 141 149 155 161 165 161 157 153 150 145 144 146 149 149 149 148 148 151 155 158 155 149 143 138
329 331 336 338 338 338 338 338 338 338 338 337 335 333 330 326 323 319 315 309 303 296 288 284 281 281 283 283 283 283 284 292 310 323 330 327 322 316 317 316 321 328 333 333 325 317 306 314 315 310 304 316 342 355 15 355 67 128 131 129 129 132 139 147 152 156 159 156 151 147 147 146 147 149 152 150 147 144 140 140 141 144 144 142 140 139
333 337 341 343 342 340 339 339 338 338 338 336 334 331 328 325 322 318 314 308 302 295 288 280 274 271 270 273 275 279 284 292 303 312 318 321 320 316 309 309 317 324 325 326 323 318 311 310 306 303 300 324 353 348 342 328 55 106 113 118 123 128 135 142 147 150 152 147 141 137 136 138 142 147 150 142 137 134 130 128 129 131 135 136 136 136
340 342 345 345 344 341 339 338 337 336 335 333 331 328 325 323 320 317 311 304 297 291 286 279 272 266 262 264 268 273 281 289 296 301 305 305 304 297 288 292 299 304 305 307 311 312 309 303 298 296 307 335 344 326 304 3 83 89 92 98 109 119 126 133 137 138 138 131 126 123 121 122 125 129 131 130 126 122 119 119 120 122 127 128 129 130
345 345 346 346 345 342 338 336 335 334 332 329 326 324 322 320 317 315 309 301 293 287 282 278 274 268 263 264 264 267 272 277 281 284 285 284 279 273 269 275 279 281 281 284 292 299 302 299 298 304 333 339 329 306 194 119 105 97 91 84 86 93 104 114 119 121 121 117 113 109 107 108 111 114 118 120 118 115 113 112 113 115 117 118 120 121
347 346 346 345 343 341 337 334 332 330 327 323 321 318 317 318 317 314 309 302 295 289 285 284 281 275 268 264 263 263 264 267 269 270 270 266 261 255 256 262 268 270 269 269 272 277 282 288 297 312 333 331 329 335 62 103 110 112 108 92 78 72 78 93 104 111 115 114 111 106 102 102 104 108 114 118 119 117 116 116 116 117 117 113 112 112
346 345 344 343 341 338 334 331 328 324 321 318 316 316 318 320 320 317 312 308 305 302 299 296 290 282 275 268 264 261 261 262 263 263 261 255 248 243 242 250 257 264 266 264 263 263 266 274 284 294 303 299 292 102 95 111 128 132 126 110 93 77 70 83 96 105 111 113 112 110 106 102 101 102 106 113 118 121 122 123 123 124 123 122 119 115
345 343 341 339 337 334 331 327 324 321 319 317 318 321 326 329 328 324 321 319 318 316 314 309 302 293 284 272 265 261 259 260 261 262 262 254 246 239 235 238 246 256 263 264 263 261 262 270 278 282 283 279 264 121 112 130 143 141 131 119 113 104 87 83 89 99 104 106 109 109 108 104 100 96 95 97 103 111 119 124 126 127 127 128 129 129
344 341 339 336 334 332 329 325 323 322 322 322 325 329 335 335 332 329 327 327 326 325 324 321 315 309 303 294 281 269 265 269 274 277 278 268 255 242 230 228 232 242 254 263 266 267 268 274 279 282 280 268 207 130 112 110 116 121 120 119 115 106 86 76 82 97 105 108 110 110 109 105 101 96 91 88 87 90 98 111 120 125 129 131 132 132
342 339 335 333 331 328 326 325 327 328 330 331 334 337 340 339 336 332 330 329 328 328 326 322 318 316 315 318 319 313 302 299 301 303 303 296 279 254 226 221 223 232 244 258 271 279 285 287 289 289 290 276 182 127 110 88 83 95 115 127 126 121 108 99 97 103 105 109 110 110 107 103 97 91 84 79 75 73 76 87 100 112 123 128 129 129
339 336 335 334 332 331 331 334 335 336 335 335 338 341 343 341 338 335 333 331 329 328 326 323 320 319 322 329 331 330 327 325 325 326 328 330 329 312 217 212 215 222 234 255 284 304 311 307 302 298 297 300 94 105 99 92 93 106 126 133 131 127 125 125 121 112 104 102 100 100 101 99 96 88 79 71 64 59 59 66 74 83 96 111 117 120
339 338 339 338 337 337 340 341 340 338 337 338 340 343 344 343 341 339 338 335 332 330 328 326 325 328 337 342 340 336 335 338 342 343 341 342 348 354 340 206 207 216 233 279 340 349 340 327 318 315 320 5 65 87 95 94 93 95 100 106 105 104 104 109 113 113 109 102 97 96 101 104 101 95 85 74 64 56 53 59 68 76 83 96 106 112
344 343 343 342 341 342 343 342 341 339 338 340 342 344 344 343 341 341 341 339 336 332 330 330 333 339 347 347 344 342 342 344 347 348 347 346 352 1 12 23 56 93 91 63 47 33 10 347 331 328 346 41 60 64 68 71 73 75 75 92 100 102 101 100 102 106 109 107 106 107 111 109 105 100 94 85 73 60 51 53 61 71 80 91 102 109
346 345 345 344 343 343 343 343 341 340 340 341 343 344 344 344 343 343 345 344 340 335 333 335 339 346 352 352 350 348 347 346 346 346 347 343 347 358 16 29 48 65 76 74 64 53 35 15 359 353 7 46 62 59 47 46 53 65 77 95 105 108 105 100 96 96 101 105 112 118 121 114 107 104 102 97 86 72 57 53 55 61 68 82 95 103
347 346 347 346 345 343 343 343 342 342 342 342 343 343 344 345 346 347 346 346 344 341 339 341 344 348 353 354 354 352 349 346 344 344 346 341 340 343 354 21 51 71 80 80 75 67 53 40 30 23 20 31 47 58 53 46 46 48 51 69 92 102 103 100 97 95 96 103 114 122 125 120 118 117 115 107 98 84 73 65 60 57 58 72 88 100
347 347 348 347 346 345 344 343 343 343 344 344 343 343 344 345 347 348 347 348 347 346 344 344 345 347 351 354 354 353 351 348 346 345 346 341 337 333 330 339 27 85 89 86 83 77 66 54 46 40 33 31 33 40 49 49 49 48 46 51 75 94 103 101 99 98 98 104 108 112 113 116 121 123 121 114 108 99 89 80 71 64 59 69 83 96
348 348 349 349 348 346 344 343 344 345 346 346 344 344 343 346 348 350 349 349 350 349 347 345 345 345 348 351 353 354 354 351 350 349 348 342 336 329 321 317 311 172 110 99 93 86 76 61 50 43 36 32 29 27 33 43 53 58 56 52 63 84 100 103 103 102 101 103 104 104 104 107 113 117 117 114 111 107 99 91 84 77 70 73 82 92
347 348 350 350 350 348 346 345 345 346 347 346 345 344 344 347 348 349 350 351 352 351 348 345 345 345 346 348 350 353 354 352 352 351 350 342 336 329 320 315 307 295 196 117 107 99 88 71 53 38 31 27 24 22 21 26 48 67 68 58 59 73 93 101 103 102 101 102 104 106 107 109 112 116 120 118 116 111 105 101 96 92 88 88 91 96